This is the latest recevied weather packets stored in our database for station/object AG7BI. If no packets are shown the sender has not sent any weather packets the latest 1 day(s).
| Time | Temp. | Humidity | Pressure | Rain* | Wind** | Luminosity | Snow |
|---|---|---|---|---|---|---|---|
| 1777977952 | 9.44° C | 97% | 1013.8 hPa | 0 mm | 0.89 m/s, 137° | - | - |
| 1777977652 | 9.44° C | 96% | 1013.9 hPa | 0 mm | 0.45 m/s, 141° | - | - |
| 1777977352 | 9.44° C | 96% | 1013.6 hPa | 0 mm | 0.45 m/s, 161° | - | - |
| 1777977052 | 9.44° C | 96% | 1013.9 hPa | 0 mm | 0.45 m/s, 135° | - | - |
| 1777976752 | 9.44° C | 96% | 1013.7 hPa | 0 mm | 0.89 m/s, 141° | - | - |
| 1777976452 | 9.44° C | 96% | 1013.8 hPa | 0 mm | 0.45 m/s, 183° | - | - |
| 1777976152 | 9.44° C | 95% | 1013.8 hPa | 0 mm | 0 m/s | - | - |
| 1777975852 | 9.44° C | 95% | 1013.7 hPa | 0 mm | 0.45 m/s, 146° | - | - |
| 1777975552 | 9.44° C | 95% | 1013.6 hPa | 0 mm | 0.45 m/s, 140° | - | - |
| 1777975252 | 9.44° C | 95% | 1013.7 hPa | 0 mm | 0.45 m/s, 145° | - | - |
| 1777974952 | 9.44° C | 95% | 1013.7 hPa | 0 mm | 0.45 m/s, 132° | - | - |
| 1777974652 | 9.44° C | 95% | 1013.6 hPa | 0 mm | 0.45 m/s, 146° | - | - |
| 1777974352 | 9.44° C | 95% | 1013.5 hPa | 0 mm | 0.45 m/s, 148° | - | - |
| 1777974052 | 9.44° C | 95% | 1013.4 hPa | 0 mm | 0.45 m/s, 112° | - | - |
| 1777973752 | 9.44° C | 95% | 1013.3 hPa | 0 mm | 0.89 m/s, 146° | - | - |
| 1777973452 | 9.44° C | 95% | 1013.1 hPa | 0 mm | 0.45 m/s, 151° | - | - |
| 1777973152 | 9.44° C | 94% | 1013.3 hPa | 0 mm | 0.45 m/s, 140° | - | - |
| 1777972852 | 9.44° C | 94% | 1013.3 hPa | 0 mm | 0.45 m/s, 135° | - | - |
| 1777972552 | 9.44° C | 94% | 1013.2 hPa | 0 mm | 0.89 m/s, 158° | - | - |
| 1777972252 | 9.44° C | 94% | 1013.2 hPa | 0 mm | 0.45 m/s, 126° | - | - |
| 1777971952 | 9.44° C | 94% | 1013 hPa | 0 mm | 0.45 m/s, 159° | - | - |
| 1777971652 | 10° C | 94% | 1012.9 hPa | 0 mm | 0.45 m/s, 144° | - | - |
| 1777971352 | 10° C | 93% | 1012.8 hPa | 0 mm | 0.89 m/s, 142° | - | - |
| 1777971052 | 10° C | 93% | 1012.8 hPa | 0 mm | 0.89 m/s, 133° | - | - |
| 1777970752 | 10° C | 93% | 1013 hPa | 0 mm | 0.89 m/s, 117° | - | - |
* Rain latest hour (hover to see other rain measurements)
** Current wind speed in m/s (hover to see current wind gust speed)